Chattahoochee River Whitewater Weather Center

Moon Phase Calendar



Online Cameras

 


      

Current Conditions in Phenix City
10/22/2021 7:25:06 PM

68°F
Feels Like 67
Clear
Humidity
58%
Pressure
30"
Wind
6.9 mph (NW)
Dew Point
53°F
UV Index
0/10 (Low)
Visibility
6 mi

Hourly Forecast

Date & Time Fri, Oct 22
7:00 PM
Fri, Oct 22
8:00 PM
Fri, Oct 22
9:00 PM
Fri, Oct 22
10:00 PM
Fri, Oct 22
11:00 PM
Sat, Oct 23
12:00 AM
Sat, Oct 23
1:00 AM
Sat, Oct 23
2:00 AM
Sat, Oct 23
3:00 AM
Sat, Oct 23
4:00 AM
Sat, Oct 23
5:00 AM
Sat, Oct 23
6:00 AM
Sat, Oct 23
7:00 AM
Sat, Oct 23
8:00 AM
Sat, Oct 23
9:00 AM
Sat, Oct 23
10:00 AM
Sat, Oct 23
11:00 AM
Sat, Oct 23
12:00 PM
Sat, Oct 23
1:00 PM
Sat, Oct 23
2:00 PM
Sat, Oct 23
3:00 PM
Sat, Oct 23
4:00 PM
Sat, Oct 23
5:00 PM
Sat, Oct 23
6:00 PM
Sat, Oct 23
7:00 PM
Sat, Oct 23
8:00 PM
Sat, Oct 23
9:00 PM
Sat, Oct 23
10:00 PM
Sat, Oct 23
11:00 PM
Sun, Oct 24
12:00 AM
Sun, Oct 24
1:00 AM
Sun, Oct 24
2:00 AM
Sun, Oct 24
3:00 AM
Sun, Oct 24
4:00 AM
Sun, Oct 24
5:00 AM
Sun, Oct 24
6:00 AM
Sun, Oct 24
7:00 AM
Sun, Oct 24
8:00 AM
Sun, Oct 24
9:00 AM
Sun, Oct 24
10:00 AM
Sun, Oct 24
11:00 AM
Sun, Oct 24
12:00 PM
Sun, Oct 24
1:00 PM
Sun, Oct 24
2:00 PM
Sun, Oct 24
3:00 PM
Sun, Oct 24
4:00 PM
Sun, Oct 24
5:00 PM
Sun, Oct 24
6:00 PM
Condition
Clear

Clear

Clear

Clear

Clear

Clear

Clear

Clear

Clear

Clear

Clear

Clear

Clear

Clear

Clear

Clear

Clear

Clear

Clear

Clear

Clear

Clear

Clear

Clear

Clear

Clear

Clear

Clear

Clear

Clear

Clear

Clear

Clear

Clear

Clouds

Clouds

Clouds

Clouds

Clear

Clear

Clouds

Clouds

Clouds

Clouds

Clear

Clear

Clouds

Clouds
Temperature 68°F68°F66°F64°F62°F59°F58°F57°F56°F56°F55°F55°F54°F54°F57°F63°F68°F72°F75°F78°F79°F79°F78°F75°F68°F66°F65°F64°F63°F62°F61°F60°F60°F59°F58°F58°F57°F57°F60°F66°F71°F75°F78°F80°F81°F82°F81°F77°F
Feels Like 67°F67°F65°F63°F61°F58°F57°F56°F55°F55°F54°F54°F53°F53°F56°F62°F67°F71°F74°F76°F79°F79°F77°F74°F67°F65°F64°F62°F61°F60°F60°F59°F58°F58°F57°F56°F56°F56°F59°F65°F70°F74°F77°F79°F80°F80°F80°F77°F
Cloudiness 1%5%1%0%0%0%0%0%0%0%0%0%0%0%0%0%0%0%0%0%0%0%0%0%0%0%0%0%0%0%1%3%6%6%13%20%17%15%6%6%30%41%38%33%5%10%34%40%
Visibility 6 mi6 mi6 mi6 mi6 mi6 mi6 mi6 mi6 mi6 mi6 mi6 mi6 mi6 mi6 mi6 mi6 mi6 mi6 mi6 mi6 mi6 mi6 mi6 mi6 mi6 mi6 mi6 mi6 mi6 mi6 mi6 mi6 mi6 mi6 mi6 mi6 mi6 mi6 mi6 mi6 mi6 mi6 mi6 mi6 mi6 mi6 mi6 mi
Precipitation 0%0%0%0%0%0%0%0%0%0%0%0%0%0%0%0%0%0%0%0%0%0%0%0%0%0%0%0%0%0%0%0%0%0%0%0%0%0%0%0%0%0%0%0%0%0%0%0%
Humidity 58%59%60%63%68%75%78%80%81%81%82%83%84%84%76%61%49%40%35%31%30%29%31%42%48%49%50%52%55%57%58%59%60%61%62%63%64%65%63%52%45%39%34%30%29%28%33%43%
Dew Point 53°F53°F52°F51°F51°F50°F50°F50°F50°F50°F49°F49°F49°F49°F49°F49°F48°F46°F45°F44°F45°F44°F45°F50°F47°F46°F46°F46°F46°F46°F46°F46°F46°F45°F45°F45°F45°F45°F47°F48°F48°F48°F47°F46°F46°F46°F49°F52°F
Pressure 30"30"30"30.03"30.06"30.06"30.03"30.03"30.03"30.03"30.03"30.06"30.06"30.06"30.09"30.09"30.09"30.09"30.06"30.03"30"30"30"30"30.03"30.03"30.06"30.06"30.06"30.09"30.06"30.06"30.06"30.06"30.06"30.09"30.09"30.09"30.12"30.12"30.12"30.12"30.09"30.06"30.03"30.03"30.03"30.03"
Wind Speed 4.9 mph4.9 mph5.8 mph5.8 mph5.3 mph4.9 mph4.7 mph4.4 mph4 mph4.5 mph4.5 mph4.9 mph4.6 mph4.9 mph4.8 mph4.6 mph4 mph3.6 mph3.3 mph3 mph2 mph0.6 mph1.6 mph3.1 mph2.8 mph1.2 mph1.8 mph2.8 mph3 mph2.3 mph2.2 mph2.2 mph2.1 mph2.4 mph3 mph3.3 mph3.3 mph3.8 mph3.8 mph4.5 mph4.8 mph5.5 mph5.8 mph6 mph7 mph6.6 mph4.7 mph4.1 mph
Wind
Direction
304°
NW
314°
NW
325°
NW
337°
NNW
346°
NNW
346°
NNW
345°
NNW
344°
NNW
335°
NNW
334°
NNW
340°
NNW
350°
N
353°
N
356°
N

N

N

N

N

N

N

N
66°
ENE
187°
S
213°
SSW
232°
SW
270°
W
24°
NNE
63°
ENE
77°
ENE
81°
E
76°
ENE
79°
E
95°
E
71°
ENE
84°
E
77°
ENE
74°
ENE
95°
E
97°
E
111°
ESE
119°
ESE
125°
SE
146°
SE
154°
SSE
158°
SSE
158°
SSE
157°
SSE
136°
SE

Daily Forecast

Date High Low Precip. Humidity
Today
Oct 22

Rain
78 °F
62 °F
99%
39%
Saturday
Oct 23

Clear
79 °F
54 °F
0%
35%
Sunday
Oct 24

Clouds
81 °F
57 °F
0%
30%
Monday
Oct 25

Rain
83 °F
62 °F
54%
55%
Tuesday
Oct 26

Rain
78 °F
63 °F
50%
43%
Wednesday
Oct 27

Rain
70 °F
63 °F
100%
98%
Thursday
Oct 28

Rain
72 °F
56 °F
100%
35%
Friday
Oct 29

Clear
65 °F
51 °F
0%
40%
Saturday
Oct 30

Clouds
66 °F
46 °F
0%
48%
Sunday
Oct 31

Clear
73 °F
48 °F
0%
43%
Monday
Nov 1

Clear
75 °F
53 °F
0%
42%
Tuesday
Nov 2

Clouds
64 °F
47 °F
0%
27%
Wednesday
Nov 3

Clouds
66 °F
44 °F
0%
40%
Thursday
Nov 4

Clear
71 °F
48 °F
0%
36%
Friday
Nov 5

Clouds
73 °F
53 °F
0%
55%
Saturday
Nov 6

Rain
71 °F
63 °F
50%
82%

Temperature 8-14 Day Outlook



Precipitation 8-14 Day Outlook




Quick Links
Chattahoochee River Whitewater News
Chattahoochee River Whitewater Photos
Chattahoochee River Whitewater Videos




About Us
Contact Us
Site Map
Search Site
Advertise With Us
   
www.ChattahoocheeRiverWhitewater.com
THE CHATTAHOOCHEE RIVER WHITEWATER WEBSITE

Copyright 2021, Discover Rivers
Privacy    |    Legal